Flag for Spain Weather past 2 weeks in Sevilla, Spain

Now
70 °F

Clear.


Feels Like: 70 °F
Forecast: 61 / 76 °F
Wind: 10 mph from Southwest

Location: Sevilla / San Pablo

Current Time: Sep 23, 2014 at 10:32:41 PM

Latest Report: Sep 23, 2014 at 10:00 PM


Visibility: 10 mi

Pressure: 29.95 "Hg

Humidity: 78%

Dew point: 63 °F

Location of SevillaLocation

Historic Weather in Sevilla — Graph

°F

Sevilla temperature yesterday

Maximum temperature yesterday: 77 °F (at 2:30 PM)
Minimum temperature yesterday: 64 °F (at 3:30 AM)
Average temperature yesterday: 70 °F

Past Weeks' High & Low Weather Summary

 TemperatureHumidityPressure
High90 °F (Sep 13, 5:30 PM)100% (Sep 9, 8:30 AM)30.07 "Hg (Sep 9, 8:30 AM)
Low64 °F (Sep 10, 8:30 AM)27% (Sep 9, 5:30 PM)29.74 "Hg (Sep 16, 1:00 PM)
Average73 °F71%29.94 "Hg
* Reported Sep 8 9:00 PM — Sep 23 9:30 PM, Sevilla, Weather by CustomWeather, © 2014

Note: Actual official high and low records may vary slightly from our data, if they occured in-between our weather recording intervals... More about our weather records

Advertising

Sevilla weather history for previous 24 hours

 ConditionsComfort  
Time TempWeatherWind HumidityBarometerVisibility
9:30 PM
Sep 23
70 °FPassing clouds.12 mph78%29.95 "HgN/A
9:00 PM72 °FPassing clouds.12 mph69%29.95 "HgN/A
8:30 PM72 °FPassing clouds.14 mph69%29.95 "HgN/A
8:00 PM73 °FPassing clouds.12 mph61%29.92 "HgN/A
7:30 PM75 °FScattered clouds.12 mph61%29.92 "HgN/A
7:00 PM75 °FScattered clouds.7 mph61%29.92 "HgN/A
6:30 PM75 °FScattered clouds.9 mph61%29.92 "HgN/A
6:00 PM77 °FPassing clouds.7 mph54%29.92 "HgN/A
5:30 PM77 °FPassing clouds.7 mph54%29.92 "HgN/A
5:00 PM75 °FPassing clouds.7 mph57%29.92 "HgN/A
4:30 PM75 °FPassing clouds.9 mph61%29.95 "HgN/A
4:00 PM75 °FPassing clouds.8 mph65%29.95 "HgN/A
3:30 PM73 °FScattered showers. Scattered clouds.6 mph65%29.95 "HgN/A
3:00 PM73 °FScattered showers. Scattered clouds.5 mph65%29.98 "HgN/A
2:30 PM73 °FScattered clouds.2 mph65%29.98 "HgN/A
2:00 PM72 °FSprinkles. Scattered clouds.6 mph73%29.98 "HgN/A
1:30 PM73 °FScattered showers. Scattered clouds.5 mph61%29.98 "HgN/A
1:00 PM73 °FScattered clouds.No wind61%29.98 "HgN/A
12:30 PM72 °FScattered clouds.2 mph69%30.01 "HgN/A
12:00 PM73 °FScattered clouds.1 mph69%30.01 "HgN/A
11:30 AM72 °FScattered clouds.1 mph78%30.01 "HgN/A
11:00 AM68 °FScattered clouds.2 mph88%30.01 "HgN/A
10:30 AM68 °FScattered clouds.2 mph88%30.01 "HgN/A
10:00 AM66 °FScattered clouds.1 mph94%30.01 "HgN/A
9:30 AM66 °FPassing clouds.1 mph94%29.98 "HgN/A
9:00 AM64 °FPassing clouds.2 mph94%29.98 "HgN/A
8:30 AM64 °FPassing clouds.No wind94%29.98 "HgN/A
8:00 AM64 °FPassing clouds.No wind94%29.98 "HgN/A
7:30 AM66 °FPassing clouds.No wind88%29.98 "HgN/A
7:00 AM64 °FPassing clouds.No wind94%29.98 "HgN/A
6:30 AM64 °FPassing clouds.1 mph94%29.98 "HgN/A
6:00 AM64 °FPassing clouds.2 mph94%29.98 "HgN/A
5:30 AM66 °FClear.2 mph88%29.95 "Hg10 mi
5:00 AM66 °FClear.No wind88%29.98 "Hg10 mi
4:30 AM66 °FClear.1 mph94%29.98 "Hg10 mi
4:00 AM66 °FClear.No wind88%29.98 "Hg10 mi
3:30 AM66 °FPassing clouds.2 mph88%29.98 "HgN/A
1:00 AM66 °FPassing clouds.3 mph88%29.98 "HgN/A
12:30 AM68 °FPassing clouds.6 mph83%30.01 "HgN/A
12:00 AM68 °FPassing clouds.7 mph78%30.01 "HgN/A
11:30 PM
Sep 22
68 °FPassing clouds.5 mph78%30.01 "HgN/A
11:00 PM68 °FClear.6 mph78%29.98 "Hg10 mi
10:30 PM68 °FClear.8 mph78%29.98 "Hg10 mi
10:00 PM68 °FPassing clouds.7 mph73%29.98 "HgN/A
Weather by CustomWeather, © 2014

See weather overviewHow to use our weather pages